This demonstration page uses our WeatherBlox Daily Observations layout. Learn more.

39.08367, -84.50855

Hourly Observations for January 10, 2019

Temp ( °F °C ) Dew Point ( °F °C ) Humidity (%) Winds ( mph kmh ) Pressure ( in mb ) Visibility ( mi km ) Precip ( " mm )
12:53 am 00:53 Cloudy 23 -5 13 -10.6 65 65 NW 12 19 30.33 1027 10 16.09344 0.001 0.001
1:53 am 01:53 Cloudy with Light Snow 23 -5 13 -10.6 65 65 NW 7 11 30.33 1027 8 12.874752 0.001 0.001
2:53 am 02:53 Cloudy 23 -5 13 -10.6 65 65 NW 8 13 30.36 1028 10 16.09344 0.001 0.001
3:53 am 03:53 Cloudy 23 -5 13 -10.6 65 65 WNW 8 13 30.36 1028 10 16.09344 0 0
4:53 am 04:53 Cloudy 23 -5 12 -11.1 63 63 WNW 6 9 30.36 1028 10 16.09344 0 0
5:53 am 05:53 Cloudy 23 -5 11 -11.7 60 60 VRB 6 9 30.36 1028 10 16.09344 0 0
6:53 am 06:53 Cloudy 24 -4.4 11 -11.7 57 57 WNW 7 11 30.36 1028 10 16.09344 0 0
7:53 am 07:53 Cloudy 24 -4.4 11 -11.7 57 57 W 9 15 30.39 1029 10 16.09344 0 0
8:53 am 08:53 Cloudy 24 -4.4 12 -11.1 60 60 VRB 6 9 30.39 1029 10 16.09344 0 0
9:53 am 09:53 Cloudy 25 -3.9 12 -11.1 58 58 VRB 6 9 30.42 1030 10 16.09344 0 0
10:53 am 10:53 Mostly Cloudy 26 -3.3 14 -10 60 60 W 8 13 30.42 1030 10 16.09344 0.001 0.001
11:53 am 11:53 Mostly Cloudy 27 -2.8 14 -10 58 58 NNW 8 13 30.39 1029 10 16.09344 0 0
12:53 pm 12:53 Cloudy 27 -2.8 15 -9.4 61 61 NW 9 15 30.36 1028 10 16.09344 0 0
1:53 pm 13:53 Cloudy 28 -2.2 15 -9.4 58 58 NW 7 11 30.36 1028 10 16.09344 0 0
2:53 pm 14:53 Cloudy 28 -2.2 15 -9.4 58 58 NNW 7 11 30.36 1028 10 16.09344 0 0
3:53 pm 15:53 Cloudy 28 -2.2 16 -8.9 60 60 NW 10 17 30.36 1028 10 16.09344 0 0
4:53 pm 16:53 Cloudy 28 -2.2 16 -8.9 60 60 NNW 7 11 30.39 1029 10 16.09344 0 0
5:53 pm 17:53 Cloudy 28 -2.2 16 -8.9 60 60 NNW 7 11 30.39 1029 10 16.09344 0 0
6:53 pm 18:53 Cloudy 28 -2.2 17 -8.3 63 63 NNW 6 9 30.39 1029 10 16.09344 0 0
7:00 pm 19:00 Cloudy 28 -2.2 17 -8.3 63 63 NW 3 6 30.42 1030 10 16.09344 0 0
7:53 pm 19:53 Cloudy 28 -2.2 17 -8.3 63 63 NNE 3 6 30.39 1029 10 16.09344 0 0
8:53 pm 20:53 Cloudy 28 -2.2 17 -8.3 63 63 Calm 30.39 1029 10 16.09344 0 0
9:53 pm 21:53 Cloudy 28 -2.2 17 -8.3 63 63 WNW 5 7 30.39 1029 10 16.09344 0 0
10:53 pm 22:53 Cloudy 28 -2.2 17 -8.3 63 63 N 3 6 30.39 1029 10 16.09344 0 0
11:53 pm 23:53 Cloudy 28 -2.2 17 -8.3 63 63 NNW 6 9 30.39 1029 10 16.09344 0 0

Powered by AerisWeather